Location: San Gennaro Vesuviano
(40.8833°N, 14.5333°E)
Time: 10:23:06
(UTC+00:00)

Lacrosse 5 rocket - Pass Details

Date: 22 April 2021
Orbit: 460 x 634 km, 57.0° (Epoch: 11 May)

Event Time Altitude Azimuth Distance (km) Brightness Sun altitude
Rises 20:43:48 0° 323° (NW) 2,772 6.2 -28.0°
Reaches altitude 10° 20:46:45 10° 345° (NNW) 1,909 4.9 -28.3°
Maximum altitude 20:49:32 16° 25° (NNE) 1,563 3.9 -28.7°
Enters shadow 20:50:01 16° 32° (NNE) 1,580 3.8 -28.7°
